Location: Glencliff
(36.1226°N, 86.7183°W)
Time: 22:28:41
(UTC+00:00)

Cosmos 968 Rocket - Pass Details

Date: 25 August 2019
Orbit: 741 x 771 km, 74.0° (Epoch: 14 September)

Event Time Altitude Azimuth Distance (km) Brightness Sun altitude
Rises 10:25:06 0° 333° (NNW) 3,208 6.7 -10.0°
Reaches altitude 10° 10:27:35 10° 326° (NW) 2,284 5.8 -9.6°
Maximum altitude 10:32:22 39° 259° (WSW) 1,124 3.9 -8.7°
Drops below altitude 10° 10:37:10 10° 191° (S) 2,288 5.7 -7.7°
Sets 10:39:40 0° 183° (S) 3,214 6.5 -7.3°
